Weather History for Lancaster, TX

Change the Weather History Date:

Wednesday, March 20, 2013

  Actual Average (KRBD) Record (KRBD)
Temperature  
Mean Temperature 54 °F -  
Max Temperature 66 °F 65 °F 82 °F (2004)
Min Temperature 42 °F 47 °F 37 °F (2001)
Degree Days  
Heating Degree Days 11    
Growing Degree Days 4 (Base 50)    
Moisture  
Dew Point 29 °F    
Average Humidity 38    
Maximum Humidity 70    
Minimum Humidity 16    
Precipitation  
Precipitation 0.00 in - - ()
Sea Level Pressure  
Sea Level Pressure 30.19 in    
Wind  
Wind Speed 7 mph (NE)    
Max Wind Speed 15 mph    
Max Gust Speed 22 mph    
Visibility 10 miles    
Events      
Averages and records for this station are not official NWS values.
T = Trace of Precipitation, MM = Missing Value Source: NWS Daily Summary

Daily Weather History Graph

Daily Weather History Graph

Search for Another Location

Airport:

Trip Planner

Search our weather history database for the weather conditions in past years. The results will help you decide how hot, cold, wet, or windy it might be!

Date:

Astronomy

Mar. 20, 2013 Rise Set
Actual Time 7:30 AM CDT 7:38 PM CDT
Civil Twilight 7:05 AM CDT 8:03 PM CDT
Nautical Twilight 6:37 AM CDT 8:31 PM CDT
Astronomical Twilight 6:08 AM CDT 9:00 PM CDT
Moon 1:32 PM CDT (3/20) 2:53 AM CDT (3/20)
Length of Visible Light 12h 57m
Length of Day
12h 08m
First Quarter, 59% of the Moon is Illuminated
Mar 20
First Quarter
Mar 27
Full
Apr 2
Last Quarter
Apr 10
New
Apr 18
First Quarter

Hourly Weather History & Observations

Time (CDT) Temp. Windchill Dew Point Humidity Pressure Visibility Wind Dir Wind Speed Gust Speed Precip Events Conditions
12:15 AM 57.7 °F - 32.5 °F 39% 30.11 in 10.0 mi NE 10.4 mph - N/A   Clear
12:35 AM 57.2 °F - 32.7 °F 40% 30.12 in 10.0 mi NE 5.8 mph - N/A   Clear
12:55 AM 55.9 °F - 32.7 °F 41% 30.13 in 10.0 mi NNE 3.5 mph - N/A   Clear
1:15 AM 54.9 °F - 32.5 °F 43% 30.14 in 10.0 mi NE 5.8 mph - N/A   Clear
1:35 AM 54.1 °F - 32.5 °F 44% 30.15 in 10.0 mi NNE 5.8 mph - N/A   Clear
1:55 AM 53.8 °F - 32.9 °F 45% 30.16 in 10.0 mi NNE 5.8 mph - N/A   Clear
2:15 AM 52.9 °F - 32.9 °F 47% 30.16 in 10.0 mi NNE 5.8 mph - N/A   Clear
2:35 AM 52.9 °F - 32.9 °F 47% 30.17 in 10.0 mi NNE 6.9 mph - N/A   Clear
2:55 AM 52.3 °F - 33.3 °F 48% 30.18 in 10.0 mi North 5.8 mph - N/A   Clear
3:15 AM 51.8 °F - 34.0 °F 51% 30.19 in 10.0 mi North 8.1 mph - N/A   Clear
3:35 AM 49.5 °F - 34.7 °F 57% 30.19 in 10.0 mi North 8.1 mph - N/A   Clear
3:55 AM 51.4 °F - 34.7 °F 53% 30.18 in 10.0 mi NNE 6.9 mph - N/A   Clear
4:15 AM 51.8 °F - 34.7 °F 52% 30.17 in 10.0 mi NE 10.4 mph - N/A   Clear
4:35 AM 51.4 °F - 34.7 °F 53% 30.18 in 10.0 mi NE 9.2 mph - N/A   Clear
4:55 AM 51.1 °F - 34.3 °F 53% 30.18 in 10.0 mi NE 9.2 mph - N/A   Clear
5:15 AM 50.5 °F - 34.2 °F 53% 30.19 in 10.0 mi NNE 9.2 mph - N/A   Clear
5:35 AM 50.0 °F - 33.8 °F 54% 30.20 in 10.0 mi NE 9.2 mph - N/A   Clear
5:55 AM 49.1 °F - 33.8 °F 56% 30.20 in 10.0 mi NE 8.1 mph - N/A   Clear
6:15 AM 49.1 °F - 33.8 °F 56% 30.21 in 10.0 mi NNE 6.9 mph - N/A   Clear
6:35 AM 49.1 °F - 33.8 °F 56% 30.22 in 10.0 mi NNE 6.9 mph - N/A   Clear
6:55 AM 48.2 °F - 33.6 °F 57% 30.24 in 10.0 mi NNE 3.5 mph - N/A   Clear
7:15 AM 46.9 °F - 33.4 °F 59% 30.25 in 10.0 mi North 5.8 mph - N/A   Clear
7:35 AM 43.0 °F 40.3 °F 33.4 °F 69% 30.27 in 10.0 mi North 4.6 mph - N/A   Clear
7:55 AM 42.6 °F 40.9 °F 33.6 °F 70% 30.27 in 10.0 mi North 3.5 mph - N/A   Clear
8:15 AM 46.9 °F - 34.9 °F 63% 30.28 in 10.0 mi NNE 4.6 mph - N/A   Clear
8:35 AM 49.6 °F - 35.1 °F 57% 30.28 in 10.0 mi NNE 5.8 mph - N/A   Clear
8:55 AM 50.9 °F - 35.8 °F 56% 30.30 in 10.0 mi NNE 4.6 mph - N/A   Clear
9:15 AM 52.7 °F - 35.4 °F 52% 30.30 in 10.0 mi NNE 5.8 mph - N/A   Clear
9:35 AM 53.6 °F - 34.3 °F 48% 30.31 in 10.0 mi NNE 8.1 mph - N/A   Clear
9:55 AM 54.9 °F - 33.3 °F 44% 30.31 in 10.0 mi NNE 5.8 mph - N/A   Clear
10:15 AM 56.3 °F - 32.2 °F 40% 30.32 in 10.0 mi ENE 5.8 mph - N/A   Clear
10:35 AM 57.6 °F - 32.5 °F 39% 30.31 in 10.0 mi NE 6.9 mph - N/A   Clear
10:55 AM 58.8 °F - 34.0 °F 39% 30.31 in 10.0 mi NE 4.6 mph - N/A   Clear
11:15 AM 59.4 °F - 32.9 °F 37% 30.31 in 10.0 mi NE 3.5 mph - N/A   Clear
11:35 AM 61.3 °F - 32.9 °F 34% 30.31 in 10.0 mi NNE 6.9 mph - N/A   Clear
11:55 AM 63.0 °F - 32.0 °F 31% 30.30 in 10.0 mi NE 9.2 mph - N/A   Clear
12:15 PM 63.5 °F - 28.0 °F 26% 30.30 in 10.0 mi NNE 11.5 mph 17.3 mph N/A   Clear
12:35 PM 64.8 °F - 23.0 °F 20% 30.29 in 10.0 mi NNE 12.7 mph - N/A   Clear
12:55 PM 65.3 °F - 18.3 °F 16% 30.29 in 10.0 mi NE 15.0 mph 21.9 mph N/A   Clear
1:15 PM 65.1 °F - 21.2 °F 19% 30.28 in 10.0 mi ENE 15.0 mph 18.4 mph N/A   Clear
1:35 PM 64.6 °F - 20.1 °F 18% 30.27 in 10.0 mi NNE 10.4 mph 17.3 mph N/A   Clear
1:55 PM 65.5 °F - 22.5 °F 19% 30.26 in 10.0 mi NE 12.7 mph 18.4 mph N/A   Clear
2:15 PM 64.9 °F - 24.3 °F 21% 30.24 in 10.0 mi ENE 15.0 mph 18.4 mph N/A   Clear
2:35 PM 64.9 °F - 24.3 °F 21% 30.22 in 10.0 mi ENE 11.5 mph - N/A   Clear
2:55 PM 65.3 °F - 24.8 °F 22% 30.22 in 10.0 mi NNE 8.1 mph 19.6 mph N/A   Clear
3:15 PM 65.8 °F - 24.4 °F 21% 30.20 in 10.0 mi ENE 12.7 mph - N/A   Clear
3:35 PM 66.7 °F - 26.2 °F 22% 30.19 in 10.0 mi NE 10.4 mph 19.6 mph N/A   Clear
3:55 PM 65.7 °F - 25.0 °F 21% 30.19 in 10.0 mi NE 4.6 mph - N/A   Clear
4:15 PM 66.2 °F - 24.3 °F 20% 30.18 in 10.0 mi NE 8.1 mph - N/A   Clear
4:35 PM 65.8 °F - 24.4 °F 21% 30.17 in 10.0 mi NNE 8.1 mph - N/A   Clear
4:55 PM 65.5 °F - 25.0 °F 22% 30.16 in 10.0 mi East 4.6 mph - N/A   Clear
5:15 PM 66.0 °F - 24.1 °F 20% 30.16 in 10.0 mi NNE 8.1 mph - N/A   Clear
5:35 PM 65.8 °F - 24.3 °F 21% 30.14 in 10.0 mi ENE 9.2 mph - N/A   Clear
5:55 PM 64.8 °F - 23.9 °F 21% 30.14 in 10.0 mi NE 8.1 mph - N/A   Clear
6:15 PM 65.3 °F - 24.4 °F 21% 30.14 in 10.0 mi NE 5.8 mph - N/A   Clear
6:35 PM 64.0 °F - 23.9 °F 22% 30.12 in 10.0 mi ENE 5.8 mph - N/A   Clear
6:55 PM 63.9 °F - 23.9 °F 22% 30.12 in 10.0 mi ENE 5.8 mph - N/A   Clear
7:15 PM 62.6 °F - 25.0 °F 24% 30.11 in 10.0 mi East 6.9 mph - N/A   Clear
7:35 PM 60.1 °F - 25.9 °F 27% 30.11 in 10.0 mi ENE 4.6 mph - N/A   Clear
7:55 PM 58.6 °F - 26.2 °F 29% 30.11 in 10.0 mi ENE 4.6 mph - N/A   Clear
8:15 PM 57.4 °F - 25.7 °F 30% 30.10 in 10.0 mi Calm Calm - N/A   Clear
8:35 PM 56.7 °F - 28.0 °F 33% 30.11 in 10.0 mi Calm Calm - N/A   Clear
8:55 PM 54.3 °F - 28.0 °F 36% 30.10 in 10.0 mi Calm Calm - N/A   Clear
9:15 PM 52.9 °F - 28.2 °F 39% 30.10 in 10.0 mi Calm Calm - N/A   Clear
9:35 PM 52.3 °F - 28.9 °F 41% 30.10 in 10.0 mi Calm Calm - N/A   Clear
9:55 PM 52.0 °F - 26.2 °F 37% 30.09 in 10.0 mi East 3.5 mph - N/A   Clear
10:15 PM 51.6 °F - 27.5 °F 39% 30.09 in 10.0 mi Calm Calm - N/A   Clear
10:35 PM 51.3 °F - 28.0 °F 41% 30.08 in 10.0 mi Calm Calm - N/A   Clear
10:55 PM 51.1 °F - 28.0 °F 41% 30.07 in 10.0 mi Calm Calm - N/A   Clear
11:15 PM 51.6 °F - 28.0 °F 40% 30.06 in 10.0 mi Calm Calm - N/A   Clear
11:35 PM 51.8 °F - 28.4 °F 41% 30.05 in 10.0 mi Calm Calm - N/A   Clear
11:55 PM 51.6 °F - 30.4 °F 44% 30.06 in 10.0 mi Calm Calm - N/A   Clear